{"data":{"norad_id":66470,"epoch":"2026-05-24T22:04:21.322272Z","epoch_age_seconds":75274,"freshness":"FRESH","line1":"1 66470U 25262Q   26144.91969123  .00007794  00000+0  29243-3 0  9996","line2":"2 66470  42.9990 225.7609 0001033 280.0391  80.0343 15.27582992 30561","mean_motion":15.27582992,"eccentricity":0.0001033,"inclination_deg":42.999,"raan_deg":225.7609,"arg_perigee_deg":280.0391,"mean_anomaly_deg":80.0343,"bstar":0.00029243,"rev_number":3056,"period_min":94.266564078111,"perigee_km":482.33137733166,"apogee_km":483.74889652815,"semimajor_km":6861.1771369299,"source":"CELESTRAK","updated_at":"2026-05-25T13:38:21.216829Z"}}